Presure
144 153 129 145 162 156 187 171 159 153 132 177 151 148 130 179 158 131 151 172 172 203 170 175 190 199 194 198 223 210 178 139 153 146 165 159 160 177 185 185 200 196 202 203 197
159 120 149 116 185 147 156 112 149 154 176 160 143 178 177 158 178 170 203 181 161 173 178 179 190 164 165 162 201 190 203 209 202 187 196 204 203 177 194 197 194 200 181 207 206
175 180 132 193 143 189 139 193 150 184 141 120 166 150 205 133 135 153 170 194 196 204 152 176 195 191 204 180 202 192 212 187 205 206 191 205 208 203 184 202 199 205 136 216 211
124 160 184 180 125 108 122 174 195 135 133 178 153 163 185 135 119 138 133 164 217 211 220 176 208 210 184 167 160 169 195 200 178 191 181 191 208 187 193 192 190 167 117 192 209
181 163 153 137 161 185 147 106 155 138 156 142 147 172 181 142 165 173 195 141 163 154 182 158 176 177 165 176 188 214 199 178 199 195 174 163 197 164 195 176 168 199 221 234 216
163 153 190 193 183 151 133 154 165 141 133 187 146 158 144 152 178 150 144 211 224 165 312 171 289 178 215 150 174 163 213 208 160 163 217 183 183 165 179 198 225 185 228 218 227
166 141 151 123 150 124 146 145 175 119 175 197 181 134 132 200 133 144 151 177 158 167 331 324 218 191 151 151 165 172 194 183 231 224 203 200 162 218 187 162 173 196 192 228 183
140 126 139 120 147 178 130 114 168 118 164 129 152 140 184 134 141 189 138 172 228 162 171 279 153 286 259 179 187 191 176 195 204 176 180 154 214 206 218 185 184 166 210 185 186
128 161 175 177 149 129 178 144 164 188 138 182 168 154 149 186 173 214 258 195 256 280 231 300 300 228 278 213 185 194 194 218 193 195 174 219 197 209 222 212 197 225 190 183 207
189 169 122 137 128 145 157 124 141 164 187 154 171 175 190 213 224 278 239 252 243 282 306 299 298 294 208 238 195 235 182 187 192 197 176 212 166 219 215 208 198 210 184 190 239
202 204 181 196 135 188 212 128 188 182 171 161 147 176 199 220 254 199 247 169 324 314 162 291 291 277 268 207 197 237 211 184 215 212 222 197 227 187 178 207 230 210 211 240 264
194 163 188 184 195 168 203 208 123 164 138 164 181 208 205 261 288 257 243 256 310 300 294 280 277 263 256 265 214 186 178 169 170 211 193 216 167 197 212 224 221 226 228 263 244
190 194 178 189 125 188 204 203 185 180 178 190 170 174 263 292 266 247 233 310 305 292 278 276 274 256 257 249 229 221 197 166 207 154 159 190 194 201 207 201 223 231 263 262 263
198 195 201 206 204 187 193 178 198 162 168 136 198 208 290 271 256 241 298 305 295 288 260 257 254 252 243 230 244 228 169 162 171 150 168 157 169 193 220 215 234 234 266 251 286
202 174 185 167 188 201 182 180 211 166 165 203 206 221 284 270 263 235 310 294 291 282 263 252 248 239 237 236 228 221 147 153 152 155 213 212 173 204 207 222 215 262 249 270 292
199 196 197 192 211 185 175 209 221 208 202 223 222 246 285 263 246 284 297 292 264 272 265 255 248 243 236 230 221 223 219 164 216 166 161 180 193 215 230 202 249 230 254 283 290
185 203 174 200 194 199 173 217 219 199 218 227 312 287 274 253 237 302 291 288 207 272 267 249 242 242 237 229 232 225 219 215 175 163 168 179 218 228 250 242 261 173 269 266 357
199 208 186 212 170 206 211 215 209 201 215 310 305 277 279 247 272 295 290 280 271 251 259 253 244 236 235 233 155 214 218 218 215 219 167 209 228 252 235 258 257 246 289 298 352
209 167 201 226 213 210 219 212 212 207 215 298 286 278 264 260 305 288 281 278 279 273 249 248 243 229 208 227 232 216 223 222 223 230 217 231 246 238 248 257 261 287 281 325 344
363 336 336 289 207 230 188 216 208 298 226 291 285 279 293 312 294 284 280 275 275 263 255 251 238 233 231 233 231 228 230 192 230 229 232 240 239 235 257 248 244 287 296 355 337
346 336 347 230 283 315 320 325 310 285 341 340 316 318 313 300 281 280 275 269 269 270 256 249 246 231 226 227 225 226 227 230 234 232 240 226 238 258 245 250 276 278 297 360 338
214 336 228 332 322 326 227 279 316 319 302 307 304 312 308 291 282 273 271 264 264 261 266 257 249 248 240 237 236 239 235 235 233 233 235 242 253 246 248 257 269 279 304 368 335
344 338 241 303 324 322 313 258 284 329 315 306 229 310 293 247 277 272 264 269 264 267 251 244 234 248 245 205 232 234 235 235 238 236 251 250 249 239 243 271 269 278 292 366 335
258 331 323 328 284 320 308 320 327 289 318 331 307 296 286 252 278 268 268 262 263 266 259 245 245 242 239 235 198 239 239 236 198 250 244 248 237 251 258 261 270 279 313 365 342
324 323 319 316 319 314 264 331 333 329 327 319 275 295 289 279 273 263 263 256 260 266 261 210 207 243 238 237 239 243 180 235 248 243 249 232 241 196 268 253 268 279 317 352 336
319 318 306 308 297 315 324 246 351 334 310 289 284 233 288 276 265 264 256 248 252 260 265 263 257 251 248 245 242 245 248 245 247 249 236 235 232 261 258 104 266 276 309 231 309
315 320 309 297 310 312 261 313 297 315 293 289 261 287 282 272 263 257 247 249 224 225 252 253 228 236 251 250 249 250 248 250 245 236 230 238 248 260 250 249 263 269 299 364 324
Wind_Speed
39 44 33 44 52 49 44 54 52 43 43 49 46 48 45 52 54 44 52 53 63 62 64 68 72 73 70 72 65 73 69 47 58 56 67 64 70 75 73 74 80 77 80 81 75
48 32 44 32 44 47 49 33 47 52 48 56 45 58 54 54 52 64 48 60 64 63 68 74 71 61 62 57 73 69 74 71 74 74 76 77 78 68 76 78 72 81 73 86 79
48 51 34 49 40 44 50 48 45 49 45 39 54 45 53 46 47 56 64 55 57 55 56 71 75 77 69 75 74 72 70 69 72 73 69 75 76 76 66 80 78 84 51 92 90
35 52 52 51 42 34 35 43 55 45 44 44 48 63 56 47 39 48 44 65 75 64 69 73 67 70 67 56 54 57 72 71 59 70 63 66 77 65 71 69 70 60 31 76 86
57 52 57 55 56 53 46 36 50 49 57 60 59 52 61 57 71 59 62 50 68 66 73 48 68 67 54 64 66 63 61 54 70 71 55 56 70 54 71 58 59 75 88 90 83
60 51 55 56 55 56 46 60 54 50 50 62 55 62 66 70 54 61 60 79 80 65 57 72 59 72 67 47 59 53 65 66 49 54 71 61 65 56 60 73 88 64 86 86 90
58 52 56 39 54 41 59 66 57 45 55 75 64 57 57 82 50 60 76 70 75 74 48 49 51 79 48 47 52 51 69 62 62 66 70 73 54 76 64 52 59 71 70 90 71
61 54 47 42 61 68 52 46 55 47 70 56 68 65 67 56 69 86 50 75 73 80 81 56 62 52 53 63 67 66 54 65 64 58 58 48 73 72 80 65 65 54 80 70 71
66 62 74 72 61 57 75 50 71 78 50 73 67 62 70 83 83 77 77 70 68 59 56 49 47 57 50 47 61 70 68 60 66 67 57 71 67 74 77 77 71 85 72 64 83
79 74 54 65 51 60 67 53 68 73 80 61 74 66 77 89 95 78 65 62 63 48 41 41 39 38 51 45 65 53 53 58 63 67 55 71 54 76 76 74 70 80 63 71 100
75 82 77 84 69 86 93 65 79 74 68 59 60 71 80 88 83 77 57 72 40 37 65 32 32 34 35 59 64 48 59 54 61 63 66 61 76 57 56 71 86 77 78 97 100
81 68 75 78 81 67 87 89 56 69 67 71 79 89 81 90 62 59 56 53 35 29 27 33 33 32 32 32 46 43 52 37 49 63 54 69 51 62 70 79 77 82 87 93 89
82 83 81 79 59 84 88 85 69 67 71 84 75 78 83 60 57 56 56 37 29 24 24 30 29 28 28 34 44 47 42 45 58 39 45 57 60 62 68 64 78 84 92 86 93
91 87 88 89 82 82 82 69 79 46 65 68 77 84 63 62 59 53 40 33 25 20 26 28 23 24 28 35 37 40 41 41 43 33 47 44 50 58 72 72 83 82 90 84 93
94 83 83 80 78 87 82 72 93 51 55 74 79 93 60 58 53 50 33 30 23 22 26 27 24 28 31 33 36 43 33 38 33 41 59 58 47 59 64 74 67 89 79 85 88
95 90 94 86 105 83 81 95 101 87 83 90 86 65 52 51 52 40 36 31 26 22 28 27 26 27 32 36 43 49 51 43 55 42 37 44 49 62 70 53 82 60 79 82 84
80 102 83 98 85 96 81 105 96 83 91 91 53 48 51 51 52 36 35 32 34 21 24 28 29 29 34 38 44 49 52 53 39 40 41 42 60 65 72 68 77 25 75 63 44
106 113 87 105 82 102 107 100 84 84 85 62 55 49 48 50 41 34 31 32 25 25 23 27 27 30 33 40 32 45 49 51 54 56 36 53 62 68 59 75 71 62 66 72 36
110 70 93 110 96 92 100 88 83 75 78 63 53 49 46 44 32 34 32 31 26 24 25 27 31 32 31 36 44 45 52 52 53 55 48 59 62 60 66 68 70 69 62 61 28
62 63 63 84 86 91 80 86 75 64 76 57 52 47 40 31 32 34 33 31 26 27 27 29 32 32 33 35 40 44 47 38 51 52 54 56 55 54 62 64 60 61 66 46 19
59 60 55 78 61 56 52 52 55 57 41 37 35 28 29 30 32 33 32 29 26 28 28 28 32 33 32 37 39 43 47 48 48 47 48 45 55 55 54 58 59 54 63 27 16
80 53 74 51 51 51 63 54 49 44 43 40 39 29 30 29 32 33 31 29 27 25 29 29 30 34 35 37 41 44 44 42 43 42 43 52 50 49 52 55 53 50 61 17 10
50 49 66 51 49 47 47 47 44 32 34 39 43 25 26 33 31 32 31 27 26 25 26 28 26 30 34 27 34 38 39 40 41 42 48 42 42 44 45 46 48 49 53 7 9
61 43 46 44 48 44 43 38 32 39 32 35 28 28 29 30 31 31 28 27 23 24 27 27 28 29 29 29 24 33 35 34 25 39 36 37 37 42 42 40 44 47 61 5 1
44 42 42 42 42 40 42 31 32 37 32 31 29 30 33 28 29 27 28 27 23 21 26 25 24 28 27 28 29 32 18 32 31 32 29 31 37 22 35 36 40 45 59 3 9
40 39 40 40 42 35 32 40 30 35 32 29 30 32 30 28 29 26 28 28 24 20 20 22 24 26 28 28 28 29 27 27 28 26 27 30 30 34 27 17 37 42 55 19 5
42 39 38 40 36 34 37 32 33 36 32 32 31 34 28 28 27 29 30 25 28 23 20 17 21 21 21 23 24 24 24 23 21 24 24 26 31 26 24 28 33 36 50 7 11
Wind_Direction
291 297 293 298 285 288 305 278 288 283 294 295 295 288 296 287 287 294 286 289 285 279 279 282 279 277 279 280 277 277 275 281 281 280 281 282 283 286 287 288 292 293 295 295 292
300 286 284 295 300 289 289 294 279 292 288 286 295 283 278 285 290 277 285 281 283 283 276 282 276 277 278 277 278 277 278 276 278 281 284 285 286 284 288 290 294 295 291 292 291
294 291 299 299 298 292 300 302 300 292 297 297 294 293 295 290 292 286 278 278 286 297 284 278 271 274 267 281 275 278 273 283 279 280 286 286 283 286 288 291 295 293 280 294 294
309 300 298 298 282 295 293 280 301 301 298 291 298 281 304 290 286 296 298 273 304 296 300 272 272 264 272 279 284 282 281 277 281 284 286 279 281 290 290 293 292 287 271 293 292
295 279 280 296 291 300 287 293 289 300 288 302 299 289 291 295 299 277 293 301 283 294 274 286 277 277 284 285 271 268 275 275 277 281 286 282 285 284 290 290 288 295 294 292 294
293 302 291 298 297 299 298 300 284 298 290 306 305 291 295 285 279 301 298 303 302 290 293 287 269 280 271 280 280 279 270 269 280 286 272 287 290 287 292 293 290 295 293 295 297
296 301 282 287 287 299 292 290 296 293 297 302 305 303 302 303 300 299 294 276 294 291 280 280 279 269 275 277 280 285 276 285 264 267 277 281 287 279 294 279 296 297 299 298 295
286 298 291 290 281 303 294 287 293 293 285 302 285 302 301 300 299 297 301 298 293 292 285 283 286 265 263 278 275 272 282 275 274 282 281 291 280 283 286 295 296 302 300 299 302
293 294 300 297 285 289 301 292 294 299 296 301 287 298 285 305 285 305 304 303 301 297 291 281 277 275 262 266 264 271 273 263 279 281 286 273 283 287 288 295 299 299 303 305 306
294 294 295 284 290 281 295 299 280 295 298 291 300 294 304 311 315 305 303 304 301 291 285 282 272 268 276 254 264 252 278 280 279 282 285 278 294 286 291 295 302 302 307 308 309
296 293 289 292 286 292 294 293 295 296 295 282 300 300 303 311 309 291 301 295 291 287 291 269 266 260 255 251 262 246 260 281 268 271 271 284 278 293 298 298 298 304 307 310 313
298 289 294 291 295 296 295 297 288 294 296 284 300 306 304 309 303 301 301 301 293 287 267 269 268 261 251 251 261 265 279 273 281 272 281 280 299 292 296 297 303 306 311 312 311
298 300 288 291 288 290 297 297 291 295 296 299 299 299 307 300 299 299 301 289 285 280 268 269 270 264 252 245 245 251 266 284 268 304 301 289 293 295 299 305 306 309 311 319 316
299 302 297 302 302 287 290 288 291 294 297 287 301 306 296 299 297 297 292 284 277 255 265 269 263 258 250 250 248 248 277 283 286 304 299 307 302 300 298 305 308 311 319 319 318
299 281 297 290 290 294 285 291 297 292 292 298 300 307 293 296 295 295 283 280 265 247 251 260 255 248 246 246 246 248 285 289 301 301 282 286 300 299 303 308 310 315 321 321 321
295 297 297 293 296 284 289 296 301 298 296 306 305 297 291 291 290 287 279 274 270 256 247 252 247 246 241 238 242 248 255 285 273 295 303 293 298 299 304 305 312 320 325 323 326
283 293 286 294 290 291 291 295 300 294 301 306 294 291 289 288 290 273 273 270 282 253 249 247 251 244 239 242 244 249 259 269 292 298 296 295 297 302 306 312 317 317 326 324 332
291 293 287 290 282 289 291 294 294 297 300 290 291 291 285 286 282 267 263 265 257 259 249 241 242 248 247 245 285 258 264 270 275 281 297 293 300 305 311 316 321 325 334 335 330
290 288 279 284 283 284 288 289 290 289 295 286 288 285 283 280 255 260 258 259 250 239 246 242 238 247 256 254 253 260 265 272 278 283 292 298 304 309 316 317 323 330 335 338 341
281 280 275 278 279 282 276 286 280 274 293 280 281 280 275 257 254 255 251 255 251 247 241 237 242 244 248 252 256 262 268 284 282 288 296 301 306 315 316 321 325 337 345 344 346
276 277 269 277 273 271 266 264 262 270 258 252 261 255 247 247 251 251 248 251 250 243 248 242 241 247 256 258 264 269 275 281 288 294 298 303 308 311 318 323 328 341 347 346 356
281 272 281 271 268 265 281 271 264 265 268 265 265 244 237 239 237 245 245 248 251 247 240 246 244 246 251 258 263 269 276 285 293 297 302 304 306 314 321 326 330 349 352 342 35
272 271 278 271 264 263 264 274 266 249 259 261 274 224 233 259 232 240 245 247 247 246 242 245 250 251 255 268 271 275 282 288 291 298 297 301 307 317 325 331 338 351 350 53 11
279 269 267 264 270 262 262 262 256 260 246 224 221 231 232 250 232 238 239 243 245 240 243 246 251 254 259 266 268 275 280 288 298 290 298 303 313 316 328 331 346 355 355 338 309
267 266 262 263 262 260 261 256 246 224 226 219 237 223 227 225 228 233 242 243 244 237 239 251 254 259 267 272 275 276 265 284 280 287 298 308 314 314 334 331 351 357 0 51 45
266 260 258 257 256 259 254 256 229 214 220 235 225 257 226 219 225 231 233 239 243 240 238 238 242 250 256 261 267 268 268 273 280 290 298 307 316 325 335 170 355 360 2 194 107
264 259 253 253 251 251 249 243 242 218 232 223 238 222 220 218 219 224 230 234 241 242 242 242 245 248 246 250 255 257 263 273 282 289 302 305 319 329 336 338 358 5 6 162 133